RH
36 37 36 32 30 30 34 37 36 34 28 20 14 16 16 16 16 15 14 13 10 9 11 13 15 19 25 33 39 39 39 59 66 79 55 77 100 70 77 67 79 75 62
27 22 20 19 19 20 22 27 34 35 37 30 20 15 16 17 15 14 12 11 10 9 9 9 10 16 20 23 27 33 33 36 91 73 75 55 79 100 85 97 84 90 80
24 22 20 19 18 18 21 25 28 28 27 25 23 23 23 22 23 24 22 21 18 16 14 11 9 10 11 16 23 23 24 22 31 46 67 80 92 88 100 97 94 96 93
23 23 22 21 21 23 26 30 33 35 35 38 38 36 31 30 28 26 24 22 22 21 17 16 14 11 10 10 12 20 20 20 17 25 42 50 53 67 99 100 99 99 98
29 28 26 24 23 25 27 26 30 40 43 35 29 26 23 20 18 18 21 24 24 23 27 26 24 21 20 16 12 12 15 16 16 17 19 26 33 35 68 100 88 93 100
35 32 35 42 46 46 52 48 38 28 26 23 22 22 24 29 29 29 29 28 28 25 24 23 20 16 14 15 17 17 14 14 16 13 14 16 20 27 29 72 96 94 97
40 44 49 53 46 36 34 32 32 35 36 37 40 40 36 34 33 29 25 21 17 12 13 11 7 6 8 6 5 9 14 16 13 14 13 12 15 15 25 48 85 95 96
56 51 46 44 42 40 42 47 49 43 44 45 51 48 35 25 13 6 4 4 3 3 3 2 2 2 2 2 3 3 2 6 13 13 13 12 11 12 14 32 100 96 100
67 62 58 51 44 50 55 50 48 48 48 52 36 10 5 4 4 3 4 6 6 8 8 26 35 33 24 21 15 5 2 2 2 9 13 12 12 13 12 19 44 72 63
68 60 53 53 54 55 51 56 61 56 48 16 5 4 4 5 10 13 13 40 60 48 42 49 51 49 43 42 46 46 38 7 2 2 7 13 12 13 15 22 26 40 56
54 55 59 70 70 66 73 66 55 35 7 4 4 4 12 16 22 39 64 75 94 71 62 63 66 68 68 82 76 54 35 45 22 2 2 6 12 12 14 21 28 34 43
65 71 74 75 74 79 64 53 13 5 5 4 4 11 14 21 29 52 55 97 87 85 72 68 74 90 90 81 84 70 84 83 57 37 3 2 7 11 13 17 28 46 40
76 71 74 81 77 65 36 7 5 5 4 4 14 15 14 26 36 38 35 92 83 83 88 81 84 100 100 93 83 69 80 78 73 70 37 3 2 10 15 21 27 38 42
76 74 74 69 65 29 7 5 5 5 5 9 24 18 18 34 34 30 40 41 68 65 94 98 85 100 93 89 100 97 71 82 98 89 54 9 2 5 12 27 32 31 47
80 72 70 57 19 8 5 6 5 5 6 11 28 28 17 25 29 34 36 34 33 40 56 99 97 97 92 99 100 100 100 100 79 100 100 89 8 3 11 16 34 40 44
79 74 42 25 11 7 5 6 6 8 6 16 25 39 19 15 27 25 19 20 23 30 33 74 100 100 100 96 93 96 100 100 100 95 100 100 100 30 5 6 12 32 52
80 45 32 22 10 7 6 7 8 10 10 19 19 35 38 16 15 26 24 14 13 12 26 26 85 89 100 100 100 100 90 99 100 100 100 100 100 71 74 18 9 13 49
43 40 36 19 10 8 7 8 10 16 18 28 29 31 46 41 17 15 24 26 15 12 10 12 21 79 33 94 100 100 100 100 100 100 100 100 96 100 100 31 9 9 35
34 28 23 14 9 8 9 11 14 20 28 32 35 47 58 58 55 24 16 23 25 14 11 8 8 12 36 20 81 100 100 100 100 89 96 100 100 100 98 40 14 99 48
19 17 13 9 9 10 11 21 27 37 53 59 52 47 45 48 53 53 38 17 23 20 11 8 6 7 10 25 16 44 100 100 100 100 100 100 100 99 99 100 100 84 95
9 9 10 10 11 13 22 45 62 61 56 68 78 78 72 64 56 60 57 40 24 25 18 13 10 7 8 8 11 12 46 99 100 100 100 100 100 97 95 40 27 20 37
11 13 13 13 14 17 30 51 76 77 79 77 72 64 56 45 41 46 47 53 49 32 29 22 16 9 7 8 8 9 10 69 87 96 98 97 100 100 96 100 96 82 64
16 16 14 13 16 28 36 51 93 82 90 88 73 63 59 54 51 48 49 45 42 44 38 28 27 21 10 8 7 7 7 9 73 34 91 100 100 100 100 100 98 98 100
17 11 13 20 25 32 41 57 69 56 47 42 38 35 30 27 25 22 22 23 29 37 41 38 30 24 24 11 9 8 7 6 8 20 30 58 90 100 100 100 100 100 100
11 19 23 28 38 46 52 54 48 38 29 26 24 21 19 18 17 17 18 18 18 17 18 26 36 35 26 24 13 12 10 9 8 6 6 10 12 53 90 96 100 100 100
22 32 36 38 38 36 28 24 24 21 17 17 17 16 15 14 14 14 14 13 12 13 17 17 17 25 35 29 26 19 13 14 13 11 9 8 6 9 23 62 53 88 100
Wind_Speed
38 41 41 43 48 50 51 52 53 53 54 54 53 54 55 56 60 63 64 65 67 67 63 58 60 63 65 64 63 65 60 59 59 58 54 52 52 52 49 47 48 44 42
43 45 47 48 52 55 56 56 58 59 59 58 58 57 57 59 63 65 67 69 69 72 73 72 67 62 64 69 68 67 68 65 58 63 63 60 57 59 52 53 54 48 47
44 46 49 52 56 59 60 60 60 60 60 61 62 63 66 68 70 72 72 72 73 74 77 79 81 73 67 66 70 70 70 70 67 64 69 70 63 57 57 58 60 56 50
47 50 52 54 56 59 60 62 63 64 64 65 66 70 73 75 75 76 78 78 77 76 75 76 76 77 75 73 70 72 73 72 71 69 68 70 69 65 60 61 67 62 59
50 52 56 57 58 59 61 64 67 68 69 69 70 71 74 77 78 77 77 77 76 75 77 79 76 77 77 78 77 75 76 76 75 74 71 70 68 67 66 59 54 61 59
53 55 55 57 59 61 62 65 67 67 68 69 71 72 72 74 74 76 77 76 74 74 76 76 77 76 74 75 78 82 79 79 81 77 77 74 70 72 73 74 57 62 63
55 56 58 60 61 60 59 60 61 63 66 68 70 72 73 76 75 72 72 74 75 76 78 80 83 85 85 82 79 80 81 79 82 85 80 78 75 73 69 68 84 66 56
55 57 56 57 56 57 59 61 63 63 65 68 72 73 70 69 72 75 78 81 83 85 86 87 87 89 90 91 92 89 85 85 82 85 86 81 78 77 72 70 46 55 55
53 54 54 55 57 58 59 60 61 63 66 68 64 66 69 72 75 75 71 70 66 61 55 48 53 56 55 57 58 73 89 92 90 84 88 88 85 81 76 78 75 74 61
51 53 56 57 59 61 59 59 61 61 60 60 64 67 69 64 60 60 54 44 48 50 51 48 49 52 54 57 54 49 52 69 90 94 88 87 88 88 83 78 74 72 62
51 55 58 58 58 57 57 58 56 55 57 59 62 57 54 55 52 44 43 47 46 50 46 43 44 49 45 41 43 45 48 48 61 85 94 87 86 86 85 83 76 75 68
54 55 57 57 56 55 54 52 52 52 55 58 55 47 49 50 44 43 41 41 39 44 45 39 40 38 35 36 37 33 40 47 45 50 84 90 83 82 80 82 80 76 72
54 53 50 52 51 51 49 50 51 52 53 49 43 43 48 47 41 41 42 41 38 43 44 38 36 31 30 35 36 35 35 34 38 40 48 81 83 78 77 74 75 75 70
48 48 49 49 47 46 46 48 49 50 48 40 40 42 45 46 42 42 40 39 37 41 41 40 35 34 30 36 35 32 27 30 32 31 35 55 81 79 73 72 68 71 65
49 48 47 45 45 44 46 47 48 47 45 38 39 41 42 43 41 41 39 39 37 36 39 36 34 33 34 36 33 31 25 31 25 24 23 24 67 75 68 66 63 61 56
48 43 44 43 44 45 46 47 47 46 42 37 39 41 43 41 41 40 40 37 38 35 34 37 29 28 32 36 34 33 28 27 28 30 21 33 44 61 73 65 57 53 51
43 43 43 44 44 45 47 47 45 43 40 39 40 41 42 43 42 40 40 38 37 36 34 32 34 32 26 26 31 34 33 29 26 26 24 23 43 39 44 54 50 48 52
44 42 43 44 45 47 48 47 45 43 41 41 41 41 42 43 42 41 39 40 39 37 34 32 30 30 31 29 24 26 27 25 28 24 35 17 38 36 40 48 48 49 51
42 42 43 45 46 48 48 47 45 44 43 43 43 43 43 44 43 43 41 39 40 39 38 34 32 29 30 29 30 23 20 18 20 25 26 16 39 46 43 44 50 43 47
41 42 44 46 48 48 47 44 43 42 42 43 44 44 45 47 45 44 43 40 39 39 39 36 33 31 28 29 28 29 18 9 16 21 24 19 31 36 38 45 43 40 53
40 42 45 48 49 48 45 42 41 40 40 40 40 40 40 42 43 45 44 41 39 39 39 39 35 31 29 27 26 25 27 19 14 14 19 26 23 39 43 45 52 54 49
41 44 46 48 47 44 41 40 37 38 38 37 38 39 39 39 39 40 40 41 42 41 39 38 38 34 29 28 24 23 21 23 21 12 13 28 28 30 38 49 50 49 56
43 46 46 45 41 38 37 37 37 39 40 41 43 44 44 45 45 44 44 43 42 42 42 41 39 38 32 27 24 22 20 17 18 19 15 11 19 31 30 34 38 44 48
45 44 39 34 32 32 32 34 35 38 41 43 45 47 48 49 50 51 50 49 48 47 45 43 42 41 38 33 26 22 20 17 15 16 17 17 17 10 21 32 37 43 53
37 29 26 25 26 28 30 32 35 39 43 44 44 46 47 49 50 51 52 54 57 56 53 49 47 44 42 40 36 29 27 24 20 16 15 16 16 16 17 12 25 39 41
22 19 21 24 27 30 33 37 38 38 40 44 47 47 47 49 51 55 59 63 62 61 61 59 54 50 48 45 42 39 34 31 28 25 22 18 15 18 22 21 21 20 23
Wind_Direction
280 285 285 280 281 282 284 286 286 286 284 283 282 283 284 285 284 282 282 283 283 282 278 270 264 265 268 267 266 267 262 263 267 267 266 267 264 257 263 257 258 262 264
289 292 293 293 294 295 294 292 290 289 287 286 284 282 280 278 279 279 279 280 280 281 282 281 276 264 260 264 265 264 264 263 252 264 267 261 259 254 253 266 263 253 255
292 292 292 293 293 293 291 289 288 286 284 283 282 282 282 281 280 281 281 282 282 282 281 279 276 273 266 257 259 261 261 261 260 256 254 260 272 252 258 259 258 258 257
293 296 297 294 292 291 291 290 290 289 287 286 286 285 284 283 282 282 283 284 282 278 276 275 272 269 267 261 255 253 256 256 257 258 256 256 255 260 263 256 251 255 259
296 295 293 291 288 287 287 287 287 288 289 290 289 289 289 290 290 288 285 283 279 276 274 272 270 268 265 263 260 253 249 252 253 254 254 256 253 254 255 253 246 253 255
294 290 284 283 283 284 285 286 289 290 291 292 292 291 290 291 290 288 287 287 285 282 280 276 272 268 265 262 260 257 252 248 250 249 250 252 251 249 252 249 258 247 255
286 283 283 285 287 290 293 293 293 294 295 295 295 295 294 294 295 293 292 289 287 284 281 279 278 276 272 267 262 259 257 252 245 246 247 247 247 250 252 256 254 256 245
284 286 289 291 294 295 294 295 297 297 296 299 298 299 298 296 295 295 293 292 289 287 286 284 282 279 276 272 267 262 257 254 249 243 242 242 243 244 245 246 245 253 251
289 290 291 292 292 291 293 295 293 298 298 298 298 298 300 300 299 299 299 299 300 297 296 289 287 286 285 280 275 269 261 254 251 245 241 238 239 240 240 244 248 255 258
287 289 290 289 288 290 292 292 296 296 299 299 302 303 304 307 308 310 312 307 305 301 301 295 289 287 283 281 280 275 269 258 249 245 242 238 236 238 240 240 242 249 250
290 288 286 287 291 291 292 295 298 300 302 304 305 308 310 314 316 313 309 308 306 305 310 298 294 293 289 285 285 274 265 265 254 242 239 237 236 236 241 241 242 243 244
288 287 289 290 290 294 298 299 301 304 304 306 308 309 314 317 313 307 311 310 315 312 316 303 301 299 296 294 293 291 277 259 262 258 237 234 234 234 238 240 242 244 245
289 292 292 291 297 299 301 303 306 306 308 307 306 311 316 315 308 308 312 313 320 320 319 315 311 312 306 302 288 289 290 260 258 264 252 232 229 232 236 240 241 243 244
292 292 293 297 296 299 302 305 305 307 309 303 306 311 315 315 309 309 310 312 317 321 325 322 310 312 317 320 290 287 286 266 258 265 262 236 226 228 232 238 241 242 244
291 292 296 293 298 302 304 305 306 309 309 302 305 308 313 314 314 311 310 314 318 321 323 330 317 308 306 306 315 293 269 270 276 249 250 224 231 225 229 236 240 241 242
290 296 294 299 303 303 304 305 307 309 305 296 304 306 310 313 313 314 313 316 320 321 323 325 332 332 312 300 303 308 296 278 269 264 269 227 223 222 227 231 236 239 238
294 294 298 300 301 303 305 305 305 307 300 294 299 304 306 309 312 312 314 317 321 322 321 322 327 334 337 323 311 297 303 276 265 264 258 229 201 227 226 230 231 232 232
293 295 297 300 302 304 303 304 304 305 299 296 295 299 304 304 307 311 311 313 317 318 321 321 322 325 330 337 338 309 305 283 258 268 247 238 204 209 214 228 230 232 229
293 296 299 301 303 302 303 304 302 301 299 298 298 297 299 301 303 304 307 309 312 314 316 318 319 320 323 326 337 345 318 279 256 257 256 248 210 211 211 213 221 213 227
295 298 299 302 302 302 303 304 304 302 301 301 300 300 300 299 301 301 302 304 304 308 309 314 314 314 313 317 324 329 350 359 259 232 252 249 233 217 215 215 208 225 219
296 298 301 302 302 304 303 302 303 305 303 302 302 303 302 301 301 303 301 298 300 302 303 306 311 311 308 306 310 317 326 347 360 269 247 238 235 224 222 222 228 230 228
300 303 303 304 305 303 300 299 300 305 307 307 309 309 309 306 304 303 303 302 298 297 297 298 302 306 306 303 298 299 308 317 333 338 281 249 235 226 227 228 217 224 223
304 304 305 305 304 303 304 306 303 305 309 308 308 307 305 304 303 303 301 299 297 295 294 292 292 295 297 301 299 294 291 295 303 312 317 312 248 238 226 222 229 240 227
303 305 306 308 310 311 311 311 311 310 311 311 309 307 305 303 301 300 298 296 294 291 288 287 286 284 285 285 287 290 294 292 286 284 286 295 307 299 238 235 234 239 240
305 310 314 317 318 316 316 316 316 314 313 314 314 314 312 310 308 305 300 295 291 286 283 280 278 278 278 277 275 274 276 278 277 277 273 269 266 285 294 269 245 242 246
311 317 321 321 317 315 315 316 319 320 321 321 320 318 316 314 311 308 304 298 290 283 278 274 272 270 270 269 269 268 266 267 268 269 273 274 272 264 262 267 269 266 241